Simultaneous Nadir Overpasses (SNOs) Predictions

Prediction of SNOs between LANDSAT-8 and NOAA-19 Satellite Orbit:

Table of predicted SNOs for the next 14.0 days since TLE Epoch: 8/31/2024
Index Date (LANDSAT-8) Time (LANDSAT-8) Lat,Lon (LANDSAT-8) SZA (LANDSAT-8 ) Date (NOAA-19) Time (NOAA-19) Lat,Lon (NOAA-19) SZA (NOAA-19 ) Distance(km) Time Diff (sec)
1 09/01/2024 17:18:45 80.49, -47.52 74.05 09/01/2024 17:18:04 80.49, -47.68 74.01 2.92 41
2 09/01/2024 18:08:10 -80.55, 120.75 105.84 09/01/2024 18:09:01 -80.56, 120.78 105.81 0.55 51
3 09/03/2024 23:41:58 80.48,-143.51 74.86 09/03/2024 23:40:48 80.48,-143.58 74.83 1.41 70
4 09/04/2024 00:31:23 -80.54, 24.78 105.02 09/04/2024 00:31:46 -80.53, 24.74 105.02 0.85 23
5 09/06/2024 06:54:35 -80.52, -71.21 104.20 09/06/2024 06:54:30 -80.52, -71.09 104.19 2.26 5
6 09/08/2024 13:17:46 -80.50,-167.22 103.37 09/08/2024 13:17:14 -80.50,-167.05 103.36 3.23 32
7 09/08/2024 14:07:11 80.53, 0.73 76.70 09/08/2024 14:08:08 80.53, 0.68 76.72 0.96 57
8 09/10/2024 19:40:56 -80.48, 96.76 102.54 09/10/2024 19:39:58 -80.48, 96.87 102.55 2.09 58
9 09/10/2024 20:30:19 80.53, -95.00 77.58 09/10/2024 20:30:49 80.53, -94.90 77.60 1.77 30



Historial Predications of SNOs between LANDSAT-8 and NOAA-19
